This is the latest recevied weather packets stored in our database for station/object OH2MUI. If no packets are shown the sender has not sent any weather packets the latest 10 day(s).
| Time | Temp. | Humidity | Pressure | Rain* | Wind** | Luminosity | Snow |
|---|---|---|---|---|---|---|---|
| 1777701032 | 8.33° C | 95% | 1012.8 hPa | 0 mm | - | - | - |
| 1777699974 | 6.67° C | 96% | 1012.7 hPa | 0 mm | - | - | - |
| 1777698969 | 5.56° C | 96% | 1012.9 hPa | 0 mm | - | - | - |
| 1777697919 | 5° C | 95% | 1013 hPa | 0 mm | - | - | - |
| 1777696784 | 3.89° C | 94% | 1013 hPa | 0 mm | - | - | - |
| 1777695694 | 3.33° C | 94% | 1013.2 hPa | 0 mm | - | - | - |
| 1777694629 | 3.33° C | 94% | 1013.3 hPa | 0 mm | - | - | - |
| 1777693629 | 2.78° C | 93% | 1013.5 hPa | 0 mm | - | - | - |
| 1777692604 | 2.78° C | 92% | 1013.4 hPa | 0 mm | - | - | - |
| 1777691419 | 2.78° C | 91% | 1013.5 hPa | 0 mm | - | - | - |
| 1777690379 | 3.33° C | 91% | 1013.8 hPa | 0 mm | - | - | - |
| 1777689384 | 3.33° C | 91% | 1013.8 hPa | 0 mm | - | - | - |
| 1777688404 | 3.33° C | 91% | 1014 hPa | 0 mm | - | - | - |
| 1777687419 | 3.33° C | 90% | 1013.9 hPa | 0 mm | - | - | - |
| 1777686455 | 3.89° C | 89% | 1014.3 hPa | 0 mm | - | - | - |
| 1777685349 | 3.89° C | 89% | 1014.4 hPa | 0 mm | - | - | - |
| 1777684304 | 4.44° C | 88% | 1014.7 hPa | 0 mm | - | - | - |
| 1777683334 | 4.44° C | 87% | 1014.7 hPa | 0 mm | - | - | - |
| 1777682309 | 5° C | 87% | 1014.6 hPa | 0 mm | - | - | - |
| 1777681326 | 5° C | 86% | 1014.9 hPa | - | - | - | - |
| 1777681289 | 5° C | 86% | 1014.9 hPa | 0 mm | - | - | - |
| 1777680322 | 5.56° C | 84% | 1015.2 hPa | 0 mm | - | - | - |
| 1777679264 | 5.56° C | 82% | 1015.2 hPa | 0 mm | - | - | - |
| 1777678224 | 6.11° C | 83% | 1015.3 hPa | 0 mm | - | - | - |
| 1777677039 | 6.11° C | 81% | 1015.5 hPa | 0 mm | - | - | - |
* Rain latest hour (hover to see other rain measurements)
** Current wind speed in m/s (hover to see current wind gust speed)